CW7539 Weather Reports


time (UTC)temp
C
wind
direction
speed
KPH
gust
KPH
rain 1hr
cm
rain 24hr
cm
rain mn
cm
humidity
%
barometer
mb
20260510142531 17 314 1.6 8.0 0.00 0.41 0.00 86 1012.8
20260510142032 16 287 0.0 8.0 0.00 0.41 0.00 84 1012.5
20260510141542 16 244 3.2 8.0 0.00 0.41 0.00 85 1012.6
20260510141036 16 158 1.6 8.0 0.00 0.41 0.00 86 1012.7
20260510140532 15 309 3.2 9.7 0.00 0.41 0.00 87 1012.7
20260510140049 15 253 1.6 12.9 0.00 0.41 0.00 88 1012.7
20260510135534 15 327 4.8 14.5 0.00 0.41 0.00 87 1012.6
20260510135034 15 341 3.2 14.5 0.00 0.41 0.00 87 1012.6
20260510134556 15 227 3.2 14.5 0.00 0.41 0.00 87 1012.5
20260510134033 15 260 3.2 12.9 0.00 0.41 0.00 88 1012.6
20260510133532 15 276 1.6 6.4 0.00 0.41 0.00 88 1012.4
20260510133046 15 95 1.6 6.4 0.00 0.41 0.00 89 1012.5
20260510132534 14 179 0.0 6.4 0.00 0.41 0.00 90 1012.5
20260510132032 14 79 1.6 6.4 0.00 0.41 0.00 90 1012.5
20260510131541 13 111 1.6 4.8 0.00 0.41 0.00 90 1012.7
20260510131032 13 281 1.6 4.8 0.00 0.41 0.00 90 1012.7
20260510130534 13 0 0.0 4.8 0.00 0.41 0.00 92 1012.7
20260510130041 13 356 1.6 6.4 0.00 0.41 0.00 91 1012.7
20260510125532 13 349 1.6 9.7 0.00 0.41 0.00 92 1012.7
20260510125031 13 300 0.0 9.7 0.00 0.41 0.00 93 1012.7
20260510124551 13 104 3.2 9.7 0.00 0.41 0.00 92 1012.8
20260510124032 12 0 1.6 4.8 0.00 0.41 0.00 93 1012.8
20260510123532 12 289 1.6 4.8 0.00 0.41 0.00 94 1012.9
20260510123047 12 326 0.0 4.8 0.00 0.41 0.00 94 1012.8
20260510122531 12 0 0.0 3.2 0.00 0.41 0.00 94 1012.7
20260510122035 12 284 0.0 3.2 0.00 0.41 0.00 94 1012.5
20260510121546 12 304 0.0 3.2 0.00 0.41 0.00 95 1012.5
20260510121032 12 279 0.0 1.6 0.00 0.41 0.00 96 1012.4
20260510120534 12 0 0.0 1.6 0.00 0.41 0.00 96 1012.2
20260510120047 12 133 0.0 1.6 0.00 0.41 0.00 97 1012.2
20260510115532 12 0 0.0 1.6 0.00 0.41 0.00 97 1012.0
20260510115032 12 0 0.0 1.6 0.00 0.41 0.00 97 1012.0
20260510114548 12 241 0.0 1.6 0.00 0.41 0.00 97 1012.0
20260510114033 12 0 0.0 1.6 0.00 0.41 0.00 98 1011.9
20260510113531 11 110 0.0 1.6 0.00 0.41 0.00 98 1011.9
20260510113044 11 0 0.0 3.2 0.00 0.41 0.00 98 1011.8
20260510112532 11 328 0.0 3.2 0.00 0.41 0.00 98 1011.9
20260510112033 11 326 0.0 1.6 0.00 0.41 0.00 98 1011.8
20260510111553 11 302 0.0 1.6 0.00 0.41 0.00 98 1011.7
20260510111032 11 324 0.0 1.6 0.00 0.41 0.00 98 1011.6
20260510110531 11 0 0.0 1.6 0.00 0.41 0.00 98 1011.8
20260510110047 10 0 0.0 1.6 0.00 0.41 0.00 98 1011.5
20260510105534 10 0 0.0 1.6 0.00 0.41 0.00 98 1011.5
20260510105035 10 0 0.0 1.6 0.00 0.41 0.00 98 1011.5
20260510104555 10 0 0.0 1.6 0.00 0.41 0.00 98 1011.6
20260510104032 10 0 0.0 1.6 0.00 0.41 0.00 98 1011.7
20260510103532 10 0 0.0 0.0 0.00 0.41 0.00 98 1011.7
20260510103049 10 0 0.0 0.0 0.00 0.41 0.00 98 1011.6
20260510102534 10 0 0.0 1.6 0.00 0.41 0.00 98 1011.5
20260510102034 10 0 0.0 3.2 0.00 0.41 0.00 98 1011.4
20260510101542 10 261 0.0 3.2 0.00 0.41 0.00 98 1011.3
20260510101033 10 311 0.0 3.2 0.00 0.41 0.00 98 1011.2
20260510100534 10 327 0.0 4.8 0.00 0.41 0.00 98 1011.1
20260510100047 10 269 0.0 4.8 0.00 0.41 0.00 98 1011.0
20260510095533 10 306 0.0 3.2 0.00 0.41 0.00 98 1011.1
20260510095033 10 0 0.0 1.6 0.00 0.41 0.00 98 1010.9
20260510094548 10 0 0.0 1.6 0.00 0.41 0.00 98 1010.9
20260510094033 10 280 0.0 1.6 0.00 0.41 0.00 98 1011.0
20260510093533 10 0 0.0 0.0 0.00 0.41 0.00 98 1011.0
20260510093102 10 0 0.0 0.0 0.00 0.41 0.00 98 1011.1
20260510092534 10 0 0.0 0.0 0.00 0.41 0.00 98 1011.0
20260510092033 10 0 0.0 0.0 0.00 0.41 0.00 98 1011.0
20260510091546 10 0 0.0 0.0 0.00 0.41 0.00 98 1011.0
20260510091032 10 0 0.0 0.0 0.00 0.41 0.00 98 1010.9
20260510090532 10 0 0.0 0.0 0.00 0.41 0.00 98 1011.1
20260510090050 10 0 0.0 0.0 0.00 0.41 0.00 98 1010.9
20260510085532 10 0 0.0 0.0 0.00 0.41 0.00 98 1011.1
20260510085033 10 202 0.0 0.0 0.00 0.41 0.00 98 1011.1
20260510084549 10 0 0.0 1.6 0.00 0.41 0.00 98 1011.0
20260510084032 10 0 0.0 1.6 0.00 0.41 0.00 98 1011.0
20260510083536 10 0 0.0 1.6 0.00 0.41 0.00 98 1011.1
20260510083047 10 0 0.0 1.6 0.00 0.41 0.00 98 1011.3
20260510082531 10 0 0.0 1.6 0.00 0.41 0.00 98 1011.3
20260510082037 10 131 0.0 0.0 0.00 0.41 0.00 98 1011.3
20260510081606 10 0 0.0 1.6 0.00 0.41 0.00 98 1011.4
20260510081035 10 0 0.0 1.6 0.00 0.41 0.00 98 1011.3
20260510080535 10 0 0.0 1.6 0.00 0.41 0.00 98 1011.3
20260510080047 10 0 0.0 0.0 0.00 0.41 0.00 98 1011.4
20260510075532 10 0 0.0 1.6 0.00 0.41 0.00 98 1011.6
20260510075034 10 0 0.0 1.6 0.00 0.41 0.00 98 1011.6
20260510074547 10 0 0.0 1.6 0.00 0.41 0.00 98 1011.6
20260510074034 10 0 0.0 1.6 0.00 0.41 0.00 98 1011.6
20260510073533 10 0 0.0 4.8 0.00 0.41 0.00 98 1011.6
20260510073054 10 0 0.0 4.8 0.00 0.41 0.00 98 1011.6
20260510072536 10 288 0.0 4.8 0.00 0.41 0.00 98 1011.6
20260510072035 10 338 1.6 8.0 0.00 0.41 0.00 98 1011.5
20260510071541 10 0 1.6 8.0 0.00 0.41 0.00 98 1011.3
20260510071031 10 321 0.0 3.2 0.00 0.41 0.00 98 1011.3
20260510070532 10 0 0.0 0.0 0.00 0.41 0.00 98 1011.0
20260510070046 10 0 0.0 0.0 0.00 0.41 0.00 98 1010.9
20260510065532 10 0 0.0 0.0 0.00 0.41 0.00 98 1010.9
20260510065035 10 0 0.0 0.0 0.00 0.41 0.00 97 1011.0
20260510064552 10 0 0.0 0.0 0.00 0.41 0.00 97 1011.1
20260510064033 9 0 0.0 0.0 0.00 0.41 0.00 97 1011.0
20260510063534 9 0 0.0 0.0 0.00 0.41 0.00 97 1011.1
20260510063048 9 0 0.0 1.6 0.00 0.41 0.00 97 1011.2
20260510062531 9 0 0.0 1.6 0.00 0.41 0.00 97 1011.1
20260510062032 9 0 0.0 1.6 0.00 0.41 0.00 97 1011.2
20260510061548 9 0 0.0 0.0 0.00 0.41 0.00 97 1011.2
20260510061032 9 0 0.0 1.6 0.00 0.41 0.00 97 1011.2
20260510060532 9 0 0.0 1.6 0.00 0.41 0.00 97 1011.2
20260510060055 9 0 0.0 1.6 0.00 0.41 0.00 97 1011.3
20260510055533 9 0 0.0 1.6 0.00 0.41 0.00 97 1011.3
20260510055033 8 0 0.0 1.6 0.00 0.41 0.00 97 1011.3
20260510054541 8 321 0.0 1.6 0.00 0.41 0.00 97 1011.2
20260510054034 8 323 0.0 1.6 0.00 0.41 0.00 97 1011.2
20260510053531 8 0 0.0 1.6 0.00 0.41 0.00 97 1011.2
20260510053053 8 350 0.0 1.6 0.00 0.41 0.00 97 1011.0
20260510052532 8 0 0.0 1.6 0.00 0.41 0.00 97 1010.8
20260510052032 8 0 0.0 1.6 0.00 0.41 0.00 97 1011.0
20260510051601 8 271 0.0 1.6 0.00 0.41 0.00 97 1011.0
20260510051034 8 251 0.0 1.6 0.00 0.41 0.00 97 1010.9
20260510050531 8 251 0.0 1.6 0.00 0.41 0.00 97 1010.8
20260510050058 8 271 0.0 1.6 0.00 0.41 0.00 97 1011.1
20260510045532 8 0 0.0 1.6 0.00 0.41 0.00 97 1010.9
20260510045031 8 0 0.0 1.6 0.00 0.41 0.00 97 1011.0
20260510044556 8 267 0.0 1.6 0.00 0.41 0.00 97 1011.0
20260510044033 8 0 0.0 1.6 0.00 0.41 0.00 97 1011.0
20260510043532 8 346 0.0 1.6 0.00 0.41 0.00 97 1011.0
20260510043051 8 0 0.0 1.6 0.00 0.41 0.00 97 1011.0
20260510042532 8 0 0.0 1.6 0.00 0.41 0.00 97 1011.1
20260510042031 8 345 0.0 1.6 0.00 0.41 0.00 97 1011.1
20260510041543 7 0 0.0 0.0 0.00 0.41 0.00 97 1011.0
20260510041033 7 0 0.0 0.0 0.00 0.41 0.00 97 1011.0
20260510040533 7 0 0.0 1.6 0.00 0.41 0.00 96 1011.2
20260510040046 7 0 0.0 1.6 0.00 0.41 0.00 97 1011.2
20260510035531 7 0 0.0 1.6 0.00 0.41 0.41 97 1011.1
20260510035035 7 0 0.0 1.6 0.00 0.41 0.41 97 1011.0
20260510034547 7 0 0.0 1.6 0.00 0.41 0.41 96 1011.0
20260510034036 8 0 0.0 1.6 0.00 0.41 0.41 97 1011.0
20260510033532 8 0 0.0 1.6 0.00 0.41 0.41 97 1010.9
20260510033056 8 256 0.0 1.6 0.00 0.41 0.41 96 1010.8
20260510032536 8 274 0.0 1.6 0.00 0.41 0.41 97 1010.8
20260510032032 8 0 0.0 1.6 0.00 0.41 0.41 96 1010.8
20260510031547 8 0 0.0 1.6 0.00 0.41 0.41 96 1010.8
20260510031040 8 297 0.0 1.6 0.00 0.41 0.41 96 1010.8
20260510030608 8 0 0.0 1.6 0.00 0.41 0.41 96 1010.8
20260510030106 8 0 0.0 0.0 0.00 0.41 0.41 96 1010.8
20260510025532 8 0 0.0 1.6 0.00 0.41 0.41 96 1010.8
20260510025033 8 0 0.0 1.6 0.00 0.41 0.41 96 1010.8
20260510024545 8 0 0.0 1.6 0.00 0.41 0.41 96 1010.8
20260510024031 8 0 0.0 1.6 0.00 0.41 0.41 96 1010.7
20260510023531 8 0 0.0 1.6 0.00 0.41 0.41 96 1010.7
20260510023047 8 260 0.0 1.6 0.00 0.41 0.41 96 1010.6
20260510022533 8 0 0.0 1.6 0.00 0.41 0.41 96 1010.4
20260510022034 8 0 0.0 1.6 0.00 0.41 0.41 96 1010.5
20260510021541 8 0 0.0 0.0 0.00 0.41 0.41 96 1010.5
20260510021031 9 0 0.0 0.0 0.00 0.41 0.41 96 1010.6
20260510020532 9 0 0.0 0.0 0.00 0.41 0.41 96 1010.6
20260510020048 9 0 0.0 0.0 0.00 0.41 0.41 96 1010.6
20260510015533 9 0 0.0 0.0 0.00 0.41 0.41 96 1010.5
20260510015037 9 0 0.0 1.6 0.00 0.41 0.41 96 1010.5
20260510014553 9 0 0.0 1.6 0.00 0.41 0.41 96 1010.5
20260510014034 9 0 0.0 1.6 0.00 0.41 0.41 96 1010.5
20260510013532 10 0 0.0 0.0 0.00 0.41 0.41 95 1010.5
20260510013055 10 0 0.0 0.0 0.00 0.41 0.41 95 1010.5
20260510012532 10 0 0.0 0.0 0.00 0.41 0.41 95 1010.4
20260510012032 10 0 0.0 0.0 0.00 0.41 0.41 95 1010.3
20260510011541 10 0 0.0 0.0 0.00 0.41 0.41 95 1010.4
20260510011038 10 0 0.0 0.0 0.00 0.41 0.41 95 1010.2
20260510010531 10 0 0.0 0.0 0.00 0.41 0.41 95 1010.2
20260510010043 10 0 0.0 0.0 0.00 0.41 0.41 95 1010.0
20260510005537 10 0 0.0 0.0 0.00 0.41 0.41 95 1010.0
20260510005035 11 0 0.0 1.6 0.00 0.41 0.41 94 1010.0
20260510004542 11 0 0.0 1.6 0.00 0.41 0.41 95 1010.0
20260510004031 11 0 0.0 0.0 0.00 0.41 0.41 94 1009.9
20260510003531 11 0 0.0 0.0 0.00 0.41 0.41 94 1009.8
20260510003054 11 0 0.0 0.0 0.00 0.41 0.41 94 1009.7
20260510002533 11 0 0.0 0.0 0.00 0.41 0.41 94 1009.7
20260510002033 11 0 0.0 1.6 0.00 0.41 0.41 93 1009.6
20260510001546 12 0 0.0 1.6 0.00 0.41 0.41 93 1009.6
20260510001031 12 0 0.0 1.6 0.00 0.41 0.41 93 1009.5
20260510000534 12 0 0.0 0.0 0.00 0.41 0.41 92 1009.3
20260510000053 12 0 0.0 0.0 0.00 0.41 0.41 92 1009.4
20260509235534 12 0 0.0 0.0 0.00 0.41 0.41 91 1009.4
20260509235035 12 0 0.0 1.6 0.00 0.41 0.41 91 1009.4
20260509234553 13 0 0.0 1.6 0.00 0.41 0.41 91 1009.5
20260509234033 13 0 0.0 1.6 0.00 0.41 0.41 90 1009.5
20260509233535 13 0 0.0 1.6 0.00 0.41 0.41 89 1009.4
20260509233051 13 0 0.0 1.6 0.00 0.41 0.41 89 1009.3
20260509232535 13 0 0.0 1.6 0.00 0.41 0.41 88 1009.3
20260509232035 14 50 0.0 1.6 0.00 0.41 0.41 87 1009.4
20260509231542 14 0 0.0 1.6 0.00 0.41 0.41 86 1009.2
20260509231033 15 0 0.0 1.6 0.00 0.41 0.41 85 1009.3
20260509230531 15 67 0.0 1.6 0.00 0.41 0.41 83 1009.2
20260509230041 15 0 0.0 3.2 0.00 0.41 0.41 82 1009.2
20260509225532 15 80 1.6 3.2 0.00 0.41 0.41 81 1009.2
20260509225031 16 304 0.0 4.8 0.00 0.41 0.41 80 1009.2
20260509224546 16 0 0.0 4.8 0.00 0.41 0.41 80 1009.1
20260509224035 16 307 1.6 4.8 0.00 0.41 0.41 78 1009.1
20260509223532 16 126 0.0 8.0 0.00 0.41 0.41 81 1009.2
20260509223047 16 110 1.6 8.0 0.00 0.41 0.41 79 1009.4
20260509222536 16 0 0.0 3.2 0.00 0.41 0.41 81 1009.4
20260509222035 16 128 0.0 3.2 0.00 0.41 0.41 81 1009.4
20260509221543 15 128 0.0 1.6 0.00 0.41 0.41 85 1009.4
20260509221032 15 128 0.0 1.6 0.00 0.41 0.41 84 1009.3
20260509220531 15 0 0.0 1.6 0.00 0.41 0.41 83 1009.4
20260509220044 15 0 0.0 4.8 0.00 0.41 0.41 82 1009.4
20260509215532 15 297 0.0 4.8 0.00 0.41 0.41 81 1009.4
20260509215032 16 271 0.0 3.2 0.00 0.41 0.41 80 1009.3
20260509214541 15 149 1.6 4.8 0.00 0.41 0.41 81 1009.4
20260509214031 15 111 1.6 6.4 0.00 0.41 0.41 83 1009.3
20260509213532 15 77 1.6 6.4 0.00 0.41 0.41 85 1009.3
20260509213049 14 101 1.6 6.4 0.00 0.41 0.41 85 1009.3
20260509212536 14 0 0.0 1.6 0.00 0.41 0.41 87 1009.4
20260509212034 14 156 0.0 3.2 0.00 0.41 0.41 88 1009.5
20260509211540 13 357 0.0 3.2 0.00 0.41 0.41 87 1009.7
20260509211030 14 144 1.6 3.2 0.00 0.41 0.41 87 1009.7
20260509210534 14 334 0.0 1.6 0.00 0.41 0.41 88 1009.7
20260509210047 13 359 0.0 3.2 0.00 0.41 0.41 87 1009.9
20260509205532 13 0 1.6 3.2 0.00 0.41 0.41 87 1009.9
20260509205037 14 0 0.0 3.2 0.00 0.41 0.41 88 1009.9
20260509204550 14 234 0.0 1.6 0.00 0.41 0.41 88 1009.9
20260509204032 14 127 0.0 1.6 0.00 0.41 0.41 89 1009.8
20260509203534 13 0 0.0 1.6 0.00 0.41 0.41 90 1009.8
20260509203042 13 108 0.0 1.6 0.03 0.41 0.41 89 1009.7
20260509202532 13 125 0.0 1.6 0.03 0.41 0.41 91 1009.8
20260509202034 13 0 0.0 1.6 0.03 0.41 0.41 90 1009.8
20260509201552 13 0 0.0 1.6 0.03 0.41 0.41 91 1009.7
20260509201031 13 89 0.0 1.6 0.05 0.41 0.41 92 1009.7
20260509200535 13 122 0.0 1.6 0.05 0.41 0.41 92 1009.8
20260509200051 13 0 0.0 1.6 0.05 0.41 0.41 92 1010.0
20260509195531 13 122 0.0 1.6 0.05 0.41 0.41 93 1010.0
20260509195031 13 127 0.0 1.6 0.08 0.41 0.41 92 1010.1
20260509194547 12 0 0.0 1.6 0.08 0.41 0.41 92 1010.3
20260509194032 13 0 0.0 3.2 0.08 0.41 0.41 92 1010.2
20260509193531 12 113 0.0 3.2 0.08 0.41 0.41 92 1010.4
20260509193108 12 0 0.0 1.6 0.05 0.38 0.38 91 1010.5
20260509192531 12 0 0.0 1.6 0.08 0.38 0.38 92 1010.8
20260509192032 12 0 0.0 1.6 0.08 0.38 0.38 91 1011.0
20260509191542 12 4 0.0 1.6 0.05 0.36 0.36 91 1011.1
20260509191035 13 0 0.0 1.6 0.05 0.36 0.36 91 1011.2
20260509190531 12 0 0.0 3.2 0.05 0.36 0.36 91 1011.2
20260509190041 12 72 0.0 3.2 0.08 0.36 0.36 90 1011.0
20260509185533 13 295 0.0 3.2 0.08 0.36 0.36 90 1011.2
20260509185032 13 0 0.0 1.6 0.05 0.33 0.33 90 1011.4
20260509184600 13 0 0.0 1.6 0.08 0.33 0.33 89 1011.3
20260509184030 13 265 0.0 1.6 0.08 0.33 0.33 89 1011.3
20260509183532 13 125 0.0 1.6 0.13 0.33 0.33 90 1011.4
20260509183050 13 264 0.0 1.6 0.15 0.33 0.33 90 1011.3
20260509182534 13 0 0.0 1.6 0.15 0.30 0.30 91 1011.3
20260509182032 13 0 0.0 1.6 0.20 0.30 0.30 91 1011.3
20260509181549 13 60 0.0 0.0 0.23 0.30 0.30 91 1011.3
20260509181033 13 0 0.0 0.0 0.23 0.30 0.30 91 1011.3
20260509180535 13 0 0.0 1.6 0.25 0.30 0.30 91 1011.2
20260509180047 13 0 0.0 1.6 0.23 0.28 0.28 91 1011.2
20260509175531 13 0 0.0 1.6 0.23 0.28 0.28 92 1011.2
20260509175034 13 0 0.0 3.2 0.25 0.28 0.28 92 1011.2
20260509174542 13 0 0.0 3.2 0.23 0.25 0.25 91 1011.3
20260509174054 13 276 0.0 3.2 0.20 0.23 0.23 91 1011.1
20260509173534 13 293 0.0 4.8 0.20 0.20 0.20 90 1011.0
20260509173104 13 0 0.0 4.8 0.18 0.18 0.18 90 1011.1
20260509172535 13 0 1.6 4.8 0.15 0.15 0.15 89 1011.3
20260509172035 13 102 0.0 1.6 0.10 0.10 0.10 89 1011.5
20260509171613 14 0 0.0 1.6 0.08 0.08 0.08 89 1011.4
20260509171034 14 295 0.0 3.2 0.05 0.05 0.05 88 1011.4
20260509170535 14 321 0.0 4.8 0.05 0.05 0.05 87 1011.4
20260509170047 14 98 0.0 4.8 0.05 0.05 0.05 87 1011.4
20260509165532 14 0 1.6 6.4 0.05 0.05 0.05 86 1011.2
20260509165034 14 333 0.0 8.0 0.03 0.03 0.03 85 1011.4
20260509164546 14 0 1.6 8.0 0.03 0.03 0.03 85 1011.4
20260509164034 14 0 0.0 3.2 0.00 0.00 0.00 85 1011.2
20260509163534 14 0 0.0 3.2 0.00 0.00 0.00 85 1011.3
20260509163046 14 288 0.0 8.0 0.00 0.00 0.00 85 1011.3
20260509162535 14 269 0.0 12.9 0.00 0.00 0.00 85 1011.4
20260509162035 14 98 1.6 12.9 0.00 0.00 0.00 85 1011.3
20260509161544 14 279 0.0 4.8 0.00 0.00 0.00 85 1011.3
20260509161034 14 84 0.0 3.2 0.00 0.00 0.00 85 1011.4
20260509160532 14 0 0.0 3.2 0.00 0.00 0.00 85 1011.5
20260509160041 14 0 0.0 1.6 0.00 0.00 0.00 86 1011.5
20260509155533 14 0 0.0 1.6 0.00 0.00 0.00 87 1011.6
20260509155033 14 130 0.0 1.6 0.00 0.00 0.00 86 1011.6
20260509154551 14 105 0.0 4.8 0.00 0.00 0.00 85 1011.5
20260509154034 13 103 0.0 4.8 0.00 0.00 0.00 84 1011.6
20260509153534 13 0 0.0 6.4 0.00 0.00 0.00 84 1011.7
20260509153050 13 0 0.0 6.4 0.00 0.00 0.00 85 1011.5
20260509152531 13 140 1.6 6.4 0.00 0.00 0.00 84 1011.6
20260509152035 13 0 0.0 3.2 0.00 0.00 0.00 84 1011.4
20260509151547 13 93 1.6 4.8 0.00 0.00 0.00 84 1011.3
20260509151033 13 68 0.0 4.8 0.00 0.00 0.00 83 1011.4
20260509150534 14 0 0.0 1.6 0.00 0.00 0.00 83 1011.4
20260509150103 14 0 0.0 3.2 0.00 0.00 0.00 83 1011.7
20260509145536 14 0 0.0 3.2 0.00 0.00 0.00 83 1011.7
20260509145034 14 0 0.0 6.4 0.00 0.00 0.00 83 1011.7
20260509144630 14 104 1.6 6.4 0.00 0.00 0.00 82 1011.6
20260509144032 14 176 0.0 3.2 0.00 0.00 0.00 82 1011.6
20260509143534 13 0 0.0 9.7 0.00 0.00 0.00 82 1011.7
20260509143047 13 0 0.0 9.7 0.00 0.00 0.00 82 1011.7